FW5647 Weather Reports


Display with metric or nautical units.
time (UTC)temp
F
wind
direction
speed
MPH
gust
MPH
rain 1hr
in
rain 24hr
in
rain mn
in
humidity
%
barometer
mb
20260901203044 88 222 4.0 10.0 0.00 0.16 0.00 72 1014.7
20260901201550 88 253 6.0 13.0 0.00 0.16 0.00 71 1014.6
20260901200047 88 237 3.0 10.0 0.00 0.16 0.00 72 1014.7
20260901194547 89 251 6.0 11.0 0.00 0.16 0.00 70 1014.9
20260901193042 89 255 5.0 13.0 0.00 0.16 0.00 70 1014.9
20260901191602 89 310 2.0 12.0 0.00 0.16 0.00 70 1014.8
20260901190046 88 248 4.0 9.0 0.00 0.16 0.00 72 1015.0
20260901184607 89 255 5.0 11.0 0.00 0.16 0.00 69 1015.1
20260901183049 89 141 3.0 8.0 0.00 0.16 0.00 71 1015.0
20260901181553 89 295 3.0 8.0 0.00 0.16 0.00 70 1014.9
20260901180041 88 248 3.0 9.0 0.00 0.16 0.00 71 1014.8
20260901174555 89 248 1.0 7.0 0.00 0.16 0.00 70 1014.9
20260901173045 88 256 4.0 8.0 0.00 0.16 0.00 70 1015.0
20260901171550 87 264 3.0 6.0 0.00 0.16 0.00 70 1015.1
20260901170048 87 276 4.0 7.0 0.00 0.16 0.00 72 1015.3
20260901164542 86 146 2.0 7.0 0.00 0.16 0.00 73 1015.4
20260901163043 86 226 2.0 5.0 0.00 0.16 0.00 72 1015.4
20260901161600 85 299 3.0 6.0 0.00 0.16 0.00 75 1015.6
20260901160059 84 288 1.0 6.0 0.00 0.16 0.00 75 1015.8
20260901154547 84 268 2.0 4.0 0.00 0.16 0.00 76 1015.7
20260901153048 84 234 2.0 5.0 0.00 0.16 0.00 76 1015.6
20260901151540 83 146 2.0 4.0 0.00 0.16 0.00 78 1015.7
20260901150040 81 261 1.0 3.0 0.00 0.16 0.00 81 1015.9
20260901144541 81 152 0.0 2.0 0.00 0.16 0.00 81 1015.9
20260901143056 79 303 0.0 2.0 0.00 0.16 0.00 82 1015.9
20260901141629 79 0 0.0 4.0 0.00 0.16 0.00 82 1016.0
20260901140043 78 0 0.0 4.0 0.00 0.16 0.00 84 1015.8
20260901134539 77 247 0.0 4.0 0.00 0.16 0.00 85 1015.8
20260901133043 77 295 2.0 5.0 0.00 0.16 0.00 85 1015.7
20260901131541 75 262 1.0 3.0 0.00 0.16 0.00 87 1015.3
20260901130046 75 0 0.0 5.0 0.00 0.16 0.00 87 1015.4
20260901124542 74 230 1.0 5.0 0.00 0.16 0.00 89 1015.6
20260901123048 72 223 0.0 4.0 0.00 0.16 0.00 91 1015.4
20260901121544 72 274 0.0 4.0 0.00 0.16 0.00 93 1015.7
20260901120056 71 0 0.0 2.0 0.00 0.16 0.00 94 1015.6
20260901114550 70 266 1.0 3.0 0.00 0.16 0.00 95 1015.3
20260901113042 70 276 0.0 0.0 0.00 0.16 0.00 94 1015.2
20260901111549 70 0 0.0 0.0 0.00 0.16 0.00 93 1015.0
20260901110043 70 0 0.0 1.0 0.00 0.16 0.00 93 1015.1
20260901104543 71 248 0.0 1.0 0.00 0.16 0.00 93 1015.0
20260901103043 71 0 0.0 3.0 0.00 0.16 0.00 92 1014.9
20260901101540 71 0 0.0 2.0 0.00 0.16 0.00 93 1014.9
20260901100047 71 257 0.0 4.0 0.00 0.16 0.00 93 1014.9
20260901094540 71 0 0.0 1.0 0.00 0.16 0.00 93 1015.0
20260901093043 71 0 0.0 2.0 0.00 0.16 0.00 93 1015.0
20260901091540 71 0 0.0 1.0 0.00 0.16 0.00 93 1014.7
20260901090037 71 233 0.0 2.0 0.00 0.16 0.00 94 1014.6
20260901084537 71 0 0.0 2.0 0.00 0.16 0.00 94 1014.7
20260901083041 71 0 0.0 1.0 0.00 0.16 0.00 94 1014.6
20260901081541 71 0 0.0 1.0 0.00 0.16 0.00 94 1014.7
20260901080042 71 0 0.0 0.0 0.00 0.16 0.00 94 1014.6
20260901074540 71 0 0.0 0.0 0.00 0.16 0.00 93 1014.6
20260901073039 72 0 0.0 0.0 0.00 0.16 0.00 93 1014.7
20260901071541 72 0 0.0 1.0 0.00 0.16 0.00 93 1014.7
20260901070051 72 0 0.0 0.0 0.00 0.16 0.00 93 1014.6
20260901064539 72 0 0.0 0.0 0.00 0.16 0.00 93 1014.6
20260901063054 72 0 0.0 2.0 0.00 0.16 0.00 92 1014.5
20260901061558 72 0 0.0 0.0 0.00 0.16 0.00 92 1014.7
20260901060039 73 0 0.0 1.0 0.00 0.16 0.00 91 1014.8
20260901054547 73 216 0.0 1.0 0.00 0.16 0.00 91 1015.0
20260901053056 74 200 0.0 2.0 0.00 0.16 0.00 90 1015.0
20260901051541 74 0 0.0 3.0 0.00 0.16 0.00 89 1014.9
20260901050041 74 231 0.0 2.0 0.00 0.16 0.00 89 1014.9
20260901044539 74 231 0.0 4.0 0.00 0.16 0.00 88 1014.9
20260901043042 74 229 2.0 4.0 0.00 0.16 0.00 88 1014.8
20260901041540 74 262 1.0 4.0 0.00 0.16 0.00 89 1014.7
20260901040044 74 193 1.0 9.0 0.00 0.16 0.00 88 1014.5
20260901034541 74 234 0.0 4.0 0.00 0.16 0.16 88 1014.7
20260901033041 74 229 2.0 6.0 0.00 0.16 0.16 87 1015.1
20260901031542 74 221 2.0 5.0 0.00 0.16 0.16 87 1015.1
20260901030040 73 189 2.0 5.0 0.00 0.16 0.16 87 1015.1
20260901024541 73 243 0.0 4.0 0.00 0.16 0.16 87 1015.4
20260901023043 73 145 0.0 2.0 0.00 0.16 0.16 87 1015.1
20260901021544 73 224 1.0 3.0 0.00 0.16 0.16 86 1015.0
20260901020047 73 194 0.0 4.0 0.00 0.16 0.16 85 1015.0
20260901014543 73 210 1.0 5.0 0.00 0.16 0.16 85 1014.9
20260901013039 73 0 0.0 4.0 0.00 0.16 0.16 84 1014.9
20260901011542 73 150 1.0 6.0 0.00 0.16 0.16 84 1014.6
20260901010043 74 101 2.0 4.0 0.00 0.16 0.16 83 1014.6
20260901004555 73 0 0.0 8.0 0.00 0.16 0.16 83 1014.6
20260901003039 73 211 2.0 9.0 0.00 0.16 0.16 84 1014.4
20260901001542 72 142 2.0 6.0 0.00 0.16 0.16 85 1014.1
20260901000100 72 184 1.0 6.0 0.00 0.16 0.16 86 1014.0
20260831234543 72 115 2.0 6.0 0.00 0.16 0.16 87 1014.2
20260831233042 72 199 2.0 6.0 0.00 0.16 0.16 87 1014.4
20260831231548 72 109 1.0 4.0 0.01 0.16 0.16 87 1014.4
20260831230039 73 143 1.0 6.0 0.02 0.16 0.16 87 1014.5
20260831224543 73 173 3.0 11.0 0.03 0.16 0.16 88 1014.8
20260831223047 73 91 4.0 12.0 0.04 0.16 0.16 88 1014.7
20260831221546 72 151 3.0 7.0 0.05 0.15 0.15 91 1015.2
20260831220041 72 262 3.0 7.0 0.05 0.14 0.14 92 1016.0
20260831214552 72 131 2.0 4.0 0.04 0.23 0.13 92 1016.2
20260831213050 73 122 1.0 1.0 0.09 0.22 0.12 90 1016.2
20260831211545 73 0 0.0 3.0 0.10 0.20 0.10 89 1016.4
20260831210041 74 140 1.0 4.0 0.09 0.19 0.09 87 1016.1
20260831204547 76 272 3.0 8.0 0.09 0.19 0.09 84 1016.4